Temp
16 16 16 16 16 15 15 15 15 15 16 17 17 15 14 14 14 14 13 14 13 14 15 15 15 16 16 16 16 16 17 17 17 17 17 18 19 19 19 19 19 19 19 19 19 18 18 19 19 20 19 20 20 20 20 21 21 21 19 18 17 18 18 20 21 21 21 21 20 20 20 20 20 20 21 21 21 21 20 21 21 21 21 21 20 20 19 18
15 16 16 16 16 16 15 15 15 15 16 16 16 16 15 14 14 14 14 14 14 14 15 15 15 16 16 16 16 17 17 17 17 17 17 18 19 19 19 19 19 19 19 19 18 18 18 18 19 19 19 20 20 20 20 21 21 20 19 18 18 18 20 21 21 20 21 20 20 20 20 20 20 20 21 21 20 20 20 20 21 21 21 20 18 18 18 17
15 16 16 16 16 16 16 15 15 16 16 16 16 15 15 14 15 15 15 15 15 16 16 16 16 16 16 16 16 17 17 17 17 17 18 18 18 18 19 19 19 19 19 18 18 18 18 19 19 19 20 20 20 20 20 21 21 20 19 18 18 19 20 21 21 20 20 20 20 20 20 20 20 20 20 20 19 19 19 20 20 20 20 20 18 16 17 17
15 16 16 16 16 16 16 15 15 15 16 16 15 15 15 15 15 15 15 15 16 16 16 16 16 16 16 16 16 17 16 17 18 18 18 18 18 18 19 19 19 18 18 18 18 18 18 19 19 20 20 19 20 20 20 21 21 20 19 18 19 20 20 21 21 20 20 20 20 20 19 19 20 20 20 19 19 18 18 20 20 20 20 21 19 17 16 16
15 15 16 16 16 15 15 16 15 15 16 16 16 15 15 15 15 15 15 16 16 16 16 16 16 16 16 16 16 16 16 17 18 18 18 18 18 19 19 19 18 18 18 18 18 19 19 19 19 20 20 19 19 20 20 21 21 20 20 19 20 20 19 20 21 20 20 20 20 19 19 19 19 19 19 19 18 18 18 19 20 20 20 19 17 14 13 12
15 15 16 16 16 16 16 16 15 15 15 16 16 16 15 15 15 16 16 16 16 16 16 16 16 16 16 16 16 16 16 18 18 18 18 18 18 19 19 18 18 18 18 18 18 18 19 19 19 19 19 19 19 19 20 21 21 20 20 20 20 20 19 20 20 20 20 20 20 20 19 19 19 18 18 18 18 18 19 20 20 18 15 13 11 10 9 9
16 16 16 16 16 16 16 16 15 15 15 16 16 16 15 15 15 16 16 16 16 16 16 16 16 16 16 16 16 16 16 17 18 18 18 18 18 19 18 18 18 18 18 18 18 18 19 19 19 19 19 19 19 19 20 20 20 20 19 20 20 20 20 20 19 19 19 19 19 19 19 19 19 18 18 18 18 19 19 18 16 13 11 10 9 8 8 8
16 16 16 16 16 16 16 16 16 15 15 15 15 16 15 15 15 15 16 16 16 16 16 16 16 16 16 16 16 16 16 17 18 18 18 18 18 18 18 18 18 18 18 18 18 19 19 19 19 19 19 18 19 19 19 20 20 19 19 19 19 19 19 19 19 19 19 19 19 19 19 19 19 18 18 19 18 17 16 14 12 10 10 9 8 8 7 7
16 16 16 16 17 17 17 17 16 16 15 15 16 16 16 15 15 15 16 16 16 16 16 16 16 16 16 16 16 17 17 17 18 18 18 18 18 18 18 18 18 18 18 18 19 19 19 18 19 19 18 18 18 18 19 19 19 19 19 18 18 18 18 18 18 18 19 19 19 19 19 19 18 18 18 18 16 14 13 12 11 10 9 8 7 7 7 7
16 16 17 17 17 17 17 16 16 16 17 17 17 16 16 15 15 15 15 16 16 16 15 16 16 16 16 16 16 17 17 17 17 18 18 18 18 18 18 18 18 18 18 18 19 19 19 18 18 18 18 18 18 18 18 18 18 18 18 18 18 18 18 18 18 18 18 18 19 19 19 18 18 18 18 17 13 12 11 10 10 9 8 8 7 7 6 6
16 16 17 17 17 16 16 16 16 16 17 17 17 16 16 15 15 15 15 16 16 16 16 16 16 16 16 16 16 17 17 17 17 17 17 18 18 18 18 18 18 18 18 18 18 19 19 18 18 18 18 18 17 17 18 17 17 18 18 18 18 17 17 17 17 18 18 18 18 19 18 17 17 17 17 15 12 11 10 9 9 8 8 7 6 6 6 6
16 16 16 16 16 16 16 16 16 17 17 17 16 16 15 15 15 15 15 16 16 16 16 16 16 16 16 16 16 17 17 17 17 17 17 18 18 18 18 18 18 18 17 17 18 18 18 18 18 17 17 17 17 17 18 17 17 18 17 17 17 16 17 18 18 18 18 18 18 19 19 17 16 15 14 12 11 10 9 8 8 8 7 7 6 6 5 5
16 16 16 16 16 16 16 16 16 16 16 16 16 15 15 15 15 15 15 16 16 16 16 16 16 16 16 16 17 17 17 17 17 17 17 17 17 18 18 18 18 18 17 17 17 18 18 18 18 17 17 17 16 17 17 17 17 17 17 17 16 16 18 19 18 18 18 17 18 19 19 15 13 13 12 11 10 9 8 8 7 7 7 6 6 5 5 5
16 16 16 16 16 16 16 16 16 16 16 16 16 15 15 15 15 15 15 16 16 16 16 16 16 16 16 17 17 17 17 17 17 17 17 17 18 18 18 18 18 18 17 17 17 18 18 18 18 17 17 17 17 17 17 17 17 17 17 17 16 16 18 19 18 19 19 17 18 20 18 14 12 12 11 10 9 8 7 7 7 6 6 6 5 5 4 4
15 16 16 16 16 16 16 16 16 16 16 16 16 15 15 15 15 15 15 16 16 16 16 16 16 16 16 17 17 17 17 17 17 17 17 17 17 17 17 17 18 17 17 17 17 17 17 18 17 16 17 17 17 17 16 16 16 16 17 17 16 16 17 18 18 19 19 17 17 19 18 14 11 11 10 9 8 8 7 6 6 6 6 5 5 4 4 4
15 15 16 16 16 16 16 17 16 16 16 16 16 15 15 15 15 15 16 16 16 16 16 16 16 16 16 17 17 17 17 17 17 17 17 17 17 17 17 17 17 18 18 18 17 17 17 17 16 16 17 17 16 16 15 16 16 16 17 17 17 16 17 17 18 18 18 17 17 17 17 14 11 10 9 9 8 7 6 6 6 5 5 5 4 4 4 3
15 15 16 16 16 16 17 17 16 16 16 16 16 15 16 16 16 16 16 16 16 16 16 16 16 16 16 17 17 17 17 17 17 17 17 17 17 17 16 17 17 17 17 17 17 17 17 16 16 16 16 16 16 16 15 16 17 17 16 16 17 16 16 16 17 18 17 18 17 16 17 13 9 9 8 8 7 6 6 5 5 5 5 4 4 4 3 3
15 15 16 16 16 16 16 16 16 16 16 16 15 15 16 16 16 16 16 16 16 16 16 16 16 16 16 17 17 17 17 17 17 17 17 17 16 16 16 16 16 17 17 17 17 16 16 16 16 16 16 15 16 16 16 16 16 16 16 16 16 16 16 16 16 17 17 17 16 16 16 11 8 8 7 7 7 6 5 5 5 5 4 4 4 3 3 3
15 15 15 15 16 16 16 16 16 16 16 15 15 15 15 15 15 15 16 16 16 16 16 16 16 16 16 17 17 17 17 17 17 17 17 16 16 16 16 16 16 16 16 16 16 16 16 16 16 16 16 16 16 16 16 16 16 16 15 15 15 15 15 15 16 16 16 16 16 16 15 10 7 7 6 6 6 5 5 5 5 4 4 4 4 3 3 3
15 15 15 15 16 16 16 16 16 15 15 15 15 15 15 16 16 16 15 15 15 16 16 16 16 17 17 17 16 17 17 17 17 17 17 16 16 16 16 16 16 16 16 16 16 16 16 16 15 15 16 16 16 16 16 16 16 15 15 15 14 14 14 15 16 15 15 16 16 16 14 9 7 6 6 6 6 5 5 4 4 4 4 3 3 3 3 3
15 15 16 15 15 16 16 16 15 15 15 15 14 15 16 16 16 16 16 15 15 15 16 16 16 16 16 16 16 16 16 16 16 16 16 16 16 16 16 16 16 16 16 16 16 16 16 16 16 15 15 15 16 16 16 16 16 16 15 14 14 14 14 15 15 15 15 15 15 16 12 7 6 6 5 5 5 5 4 4 4 3 3 3 3 3 2 2
15 15 16 15 15 15 16 16 15 15 15 15 14 15 15 16 16 16 16 16 16 15 15 16 16 16 16 16 16 15 16 16 16 15 16 16 16 16 16 16 16 16 16 16 16 16 16 16 15 15 15 16 16 16 16 16 16 15 14 14 14 14 14 15 15 15 15 15 15 15 11 6 6 5 5 5 4 4 4 4 4 3 3 3 2 2 2 2
15 15 16 16 15 15 15 16 15 15 15 15 15 15 15 15 15 16 16 16 16 15 15 16 16 16 16 16 16 15 16 15 15 15 15 15 16 16 15 16 16 16 16 16 16 16 16 15 15 15 16 16 16 15 15 15 15 14 14 14 14 13 13 14 15 15 14 14 14 14 9 6 6 5 5 5 5 4 4 4 3 3 3 2 2 2 1 1
15 15 16 16 15 15 15 15 15 15 15 16 15 15 15 16 16 16 16 16 16 16 15 16 16 16 16 16 16 16 16 15 15 15 15 15 15 15 15 15 16 16 15 15 15 16 15 15 14 15 16 15 15 14 14 14 15 14 13 13 14 13 13 13 13 13 13 13 14 13 10 6 5 5 5 5 5 4 4 3 3 3 2 2 2 1 1 1
15 16 16 16 16 15 15 15 15 15 16 15 15 15 16 16 16 17 17 16 16 16 15 16 16 16 16 16 16 16 16 15 14 14 14 14 14 15 15 15 15 15 15 15 15 16 15 14 14 15 15 15 14 14 13 14 14 14 13 13 13 12 12 12 12 12 12 13 14 13 12 8 5 5 5 5 4 4 3 3 2 2 2 2 1 1 1 1
16 16 16 16 16 15 15 15 15 16 15 15 15 16 16 16 16 17 17 16 16 16 16 16 16 16 16 16 16 15 15 15 14 14 14 14 14 14 15 15 15 15 15 15 15 15 15 14 14 14 14 14 14 13 12 13 13 14 13 12 12 12 12 12 12 11 12 13 13 13 12 9 6 5 5 4 4 3 3 2 2 2 2 1 1 1 1 1
16 16 16 16 15 15 15 16 15 16 16 15 15 16 16 16 16 17 17 16 16 16 16 16 16 16 16 16 16 15 15 15 15 14 14 14 14 14 14 14 15 15 15 15 15 14 14 14 14 14 14 14 14 13 12 12 13 14 13 11 12 12 12 12 11 11 11 12 12 12 12 11 8 5 5 4 3 2 2 2 2 2 1 1 1 1 1 1
16 16 16 15 15 15 15 16 15 15 15 15 15 16 16 16 16 17 16 16 16 16 16 16 16 16 16 16 16 16 15 15 15 15 14 14 14 14 14 14 14 14 14 14 15 13 13 13 13 13 14 14 13 13 12 12 13 14 12 10 11 11 10 10 10 10 11 11 11 11 12 11 8 5 5 4 3 2 2 1 1 1 1 1 1 1 0 0
15 15 15 15 15 15 15 15 14 14 15 15 15 15 16 16 16 16 16 16 16 16 16 16 16 16 16 16 16 16 15 15 15 14 14 14 14 14 14 14 14 14 13 14 14 13 13 13 12 13 14 13 13 12 11 12 13 12 11 10 11 10 10 9 9 10 11 10 12 12 12 11 8 5 5 4 3 2 2 1 1 1 1 1 0 0 0 0
15 15 15 15 14 14 15 14 14 14 15 15 15 15 16 16 16 16 16 16 16 16 16 16 16 16 16 15 15 15 15 15 15 15 14 14 13 13 13 13 13 13 13 13 13 12 12 12 11 12 12 12 12 12 11 11 11 11 11 12 12 12 11 10 9 10 11 11 12 12 11 11 9 5 3 3 3 2 1 1 1 1 1 1 1 1 0 0
15 15 14 14 14 14 14 14 14 15 15 15 15 15 16 16 16 16 16 16 16 16 15 16 15 15 15 15 14 14 15 15 15 15 14 13 11 11 12 12 12 13 14 13 13 12 12 12 12 11 11 11 11 12 11 9 10 11 11 12 12 12 12 11 10 11 11 11 12 11 10 11 11 6 2 2 2 2 1 1 1 1 1 1 1 1 1 0
14 14 14 13 13 14 14 14 14 15 15 15 15 15 16 16 16 16 16 15 15 15 15 14 14 15 14 14 14 13 14 15 15 15 13 11 10 10 10 10 10 13 14 13 13 13 13 12 11 11 10 10 11 13 12 11 11 12 12 11 11 11 11 10 10 10 10 11 12 11 10 11 9 4 2 2 2 1 2 1 1 1 1 1 1 1 1 1
13 13 14 14 14 14 14 15 15 15 15 15 15 16 16 17 16 15 15 15 15 14 14 14 14 14 14 14 14 13 13 14 14 14 13 12 11 10 10 10 9 12 13 12 12 12 13 12 11 12 12 10 11 12 12 12 12 12 12 11 10 9 9 9 9 9 9 11 11 11 10 9 6 2 2 2 1 2 2 2 2 1 1 1 1 1 1 1
13 14 14 14 14 14 15 15 15 15 15 16 16 16 16 16 15 13 14 14 14 14 14 13 14 14 14 14 13 13 14 14 13 13 13 12 11 10 10 10 10 10 11 11 11 11 12 13 12 13 12 11 12 12 11 11 11 11 11 11 10 10 9 8 9 9 9 9 9 10 9 7 5 3 2 2 2 2 2 2 2 1 1 1 1 1 1 1
14 14 14 14 14 15 14 15 15 15 15 16 16 16 16 15 14 13 13 13 13 13 13 12 13 14 14 13 13 13 13 14 13 12 12 12 11 10 10 10 9 9 9 11 11 10 11 12 12 11 11 11 12 11 11 11 11 11 11 11 11 11 10 9 9 9 8 8 8 9 7 4 3 3 2 2 2 2 2 2 2 1 1 1 1 1 1 1
14 14 14 14 14 15 15 15 15 15 16 16 16 15 14 13 12 12 12 12 12 12 12 13 14 14 14 13 13 13 12 13 14 12 11 10 9 9 10 10 9 9 8 9 10 10 10 12 12 11 11 11 11 11 11 11 12 12 11 11 11 10 10 9 8 9 8 7 8 9 6 2 1 2 2 2 2 2 2 2 1 1 1 1 1 1 1 1
14 14 14 14 14 15 15 15 16 16 16 16 16 14 12 11 11 10 10 11 11 11 12 14 14 13 13 13 13 13 12 13 13 13 11 10 9 9 9 9 9 9 8 8 9 10 9 10 11 11 12 11 9 10 11 10 11 11 11 11 11 10 10 9 8 8 7 6 7 9 8 5 3 3 2 2 2 2 2 2 1 1 1 1 1 1 1 0
14 14 14 14 15 15 15 16 16 16 16 15 14 12 11 11 10 9 9 10 11 11 12 13 13 13 13 13 12 12 12 13 13 13 12 11 10 9 8 8 9 8 7 8 10 10 9 10 11 11 12 11 9 10 11 11 10 10 10 10 10 9 9 8 7 7 6 5 6 7 8 6 4 3 1 1 2 1 1 1 1 1 1 1 0 0 0 -0
14 14 15 14 15 15 15 16 15 15 16 15 13 12 11 10 10 9 9 9 10 11 12 13 12 13 13 12 12 12 12 12 12 12 12 10 9 8 7 8 8 8 7 8 9 9 9 9 10 11 10 10 11 11 11 11 11 10 10 10 10 9 8 7 7 7 6 5 5 5 7 5 3 2 1 1 2 1 1 1 1 1 1 0 0 -0 -0 -0
14 15 15 15 15 16 16 16 15 15 14 13 12 11 11 10 10 10 9 9 10 11 12 12 12 12 12 11 11 11 11 12 12 12 11 9 9 8 7 7 7 7 7 8 9 9 9 9 10 11 10 10 11 10 10 10 10 10 10 9 8 8 8 7 7 7 6 5 5 4 5 4 2 1 2 1 1 2 1 1 1 1 1 0 -0 -0 -1 -1
14 15 15 15 16 16 16 16 14 13 12 12 11 11 10 10 10 10 10 10 10 11 11 11 11 11 11 11 11 10 11 12 11 11 10 9 8 8 7 7 7 7 8 9 9 8 8 8 8 9 9 10 10 10 10 10 10 9 9 8 7 7 7 6 5 6 5 5 5 4 3 3 2 2 2 1 1 2 1 1 1 1 1 0 -0 -0 -1 -1
15 15 15 16 16 16 16 14 12 11 11 11 11 10 10 11 11 11 11 10 11 12 11 11 11 10 10 10 10 10 10 11 11 10 10 8 7 7 7 7 7 7 8 8 7 7 8 7 7 8 8 9 9 9 9 9 10 9 8 7 7 7 7 6 5 5 4 4 3 3 3 2 1 2 2 1 1 1 1 1 1 1 1 0 -1 -1 -1 -1
15 15 15 16 16 16 15 13 11 10 10 10 10 10 10 11 11 10 10 10 11 12 11 10 10 10 10 10 10 10 10 10 10 10 9 8 7 7 7 7 7 7 7 7 7 7 8 7 7 8 8 8 9 9 9 9 9 8 7 6 6 6 6 6 5 4 3 3 3 2 2 2 1 1 1 1 1 1 1 1 1 0 -0 -1 -1 -1 -1 -1
15 15 15 16 16 16 16 14 11 10 10 10 10 10 10 10 10 10 10 10 10 11 11 10 10 10 10 10 10 10 10 10 10 9 9 8 7 7 7 7 7 7 7 7 7 7 8 8 7 7 7 7 8 8 8 8 7 7 7 5 4 4 4 4 3 3 2 2 2 1 1 2 2 1 1 1 0 0 1 0 0 -0 -1 -1 -1 -1 -1 -1
15 15 15 15 15 15 14 13 11 10 10 10 10 10 10 10 9 9 9 9 9 10 10 10 10 10 10 10 11 10 10 10 10 9 8 8 7 7 7 7 7 7 6 6 6 6 7 8 7 7 6 6 6 6 7 6 6 6 6 5 4 3 3 3 3 2 2 1 1 1 1 2 2 1 1 1 0 0 0 0 -0 -0 -1 -1 -2 -2 -2 -2
15 15 15 15 14 13 12 12 11 11 11 11 11 11 10 10 10 10 10 9 10 10 9 9 10 10 9 10 10 10 9 9 9 8 7 7 7 7 7 8 7 7 7 6 6 6 7 7 6 6 6 6 6 6 6 6 5 5 5 5 4 3 3 3 2 2 2 1 0 1 1 0 1 1 1 0 -0 -0 -1 -1 -1 -1 -1 -1 -1 -2 -2 -2
15 14 13 14 14 13 13 12 12 12 12 12 12 11 10 10 10 10 10 10 10 10 9 9 9 9 9 9 9 9 9 8 8 8 7 6 7 7 7 7 7 7 7 7 6 6 6 6 6 5 6 6 6 5 6 5 5 5 5 5 4 3 2 2 2 2 2 -0 -0 1 1 -1 -0 0 -0 -0 -1 -1 -1 -1 -1 -2 -2 -2 -2 -2 -2 -2
13 13 12 12 13 13 12 12 12 12 12 12 11 11 10 10 9 9 10 10 10 10 9 9 8 8 8 8 9 9 8 8 8 7 6 6 6 6 7 7 7 7 7 7 7 6 6 6 5 4 5 5 5 5 5 5 5 5 5 5 5 3 2 2 2 2 1 -0 0 1 -0 -1 -1 -0 -1 -1 -1 -1 -1 -1 -2 -2 -2 -2 -2 -2 -3 -3
12 12 11 10 11 11 11 11 12 12 12 11 11 10 10 9 8 8 8 9 10 9 9 9 8 8 8 8 9 9 8 9 9 7 6 6 6 6 7 6 7 7 6 6 6 5 5 6 5 4 4 4 5 5 5 4 5 5 5 5 4 3 2 2 1 1 0 0 0 -1 -2 -2 -1 -1 -1 -1 -1 -1 -1 -2 -2 -2 -2 -2 -3 -3 -3 -3
13 13 12 12 12 11 11 12 12 12 11 10 10 10 9 9 8 7 7 8 9 9 8 8 8 8 8 7 8 8 7 7 8 7 6 6 6 6 6 6 6 6 6 6 5 5 5 5 4 4 4 4 4 5 5 5 4 4 4 4 3 2 2 1 0 0 -0 -1 -1 -2 -3 -3 -2 -1 -1 -1 -1 -2 -2 -2 -2 -2 -2 -3 -3 -3 -3 -3
13 13 12 13 12 11 12 12 11 11 11 9 9 10 9 8 8 7 6 6 7 8 7 7 7 7 7 7 7 7 6 5 6 6 5 5 6 6 6 6 5 5 5 5 5 5 5 4 4 4 3 3 4 4 4 4 3 3 3 3 2 2 1 0 -0 -1 -1 -2 -2 -3 -4 -3 -1 -1 -1 -2 -2 -2 -2 -2 -2 -3 -3 -3 -4 -4 -4 -4
12 13 12 13 12 10 11 11 10 11 11 8 8 9 9 8 7 7 8 7 6 6 6 6 7 7 7 8 7 6 5 5 4 4 4 4 5 5 5 5 5 5 5 4 4 4 4 3 4 3 3 3 4 4 3 2 2 3 3 2 1 1 0 -0 -1 -1 -1 -2 -3 -3 -3 -2 -1 -2 -2 -2 -2 -3 -3 -3 -3 -3 -4 -4 -4 -4 -5 -5
Height
813 813 813 812 812 812 811 810 809 808 808 807 807 808 809 810 812 812 812 812 813 814 813 813 813 813 813 814 814 814 813 813 812 812 812 811 811 810 810 810 810 810 810 810 811 811 811 810 809 808 809 809 809 808 807 806 805 810 819 827 830 828 823 812 808 808 806 804 803 801 800 802 804 800 796 795 795 796 796 796 795 794 793 794 792 791 792 794
812 812 812 811 811 811 810 810 808 808 807 806 807 808 808 809 810 811 812 812 813 814 813 813 814 814 814 814 813 813 813 812 812 811 811 811 810 810 810 810 810 810 810 811 811 811 811 810 809 809 809 810 809 807 807 805 805 811 818 825 826 821 812 804 804 804 802 804 802 799 799 801 803 800 797 798 800 798 800 799 796 795 794 794 793 793 794 795
811 811 811 810 810 810 810 809 808 807 807 806 807 807 807 808 808 809 811 812 812 812 813 813 814 814 814 814 813 813 813 813 812 810 809 810 810 810 810 811 811 811 810 811 811 811 810 809 809 809 809 810 808 807 807 806 806 809 815 823 820 812 806 801 801 802 801 801 800 800 799 800 800 799 799 801 801 800 803 800 798 799 797 796 795 794 795 796
810 810 810 809 809 809 809 808 807 806 806 806 806 807 807 807 807 808 809 810 811 811 812 813 813 813 813 813 813 813 813 813 812 809 809 810 810 810 811 811 811 811 810 810 810 810 809 809 808 808 809 811 808 807 809 807 806 808 812 817 812 806 807 802 799 800 800 799 800 801 801 801 800 799 800 802 803 803 802 800 799 800 797 796 796 796 797 800
809 808 808 808 807 807 807 807 807 806 805 804 805 806 806 806 806 807 808 809 810 811 812 813 813 813 813 813 813 813 814 816 812 809 810 810 810 811 811 811 811 811 810 810 810 809 809 808 808 808 809 811 810 809 808 803 803 806 807 808 804 804 807 802 799 801 799 798 800 801 802 802 799 800 801 802 806 804 800 799 797 798 797 798 800 801 805 808
808 807 807 806 806 806 805 805 804 804 804 803 803 804 805 805 805 806 807 808 809 810 811 812 812 812 813 813 813 813 814 816 811 809 810 810 811 811 811 811 811 811 810 810 809 809 809 808 809 810 810 811 811 810 807 802 801 806 806 803 802 803 804 801 799 800 798 799 800 800 800 799 800 802 801 801 803 800 797 797 798 801 803 803 805 808 812 814
807 806 806 805 805 805 804 803 802 801 801 801 802 803 804 804 805 805 806 807 808 810 811 811 812 812 813 813 813 813 814 813 810 810 810 810 811 810 811 811 811 811 810 810 809 809 809 808 809 810 811 811 811 809 806 802 801 806 807 803 801 801 801 800 800 799 798 799 799 799 798 799 801 803 801 800 798 796 797 799 803 805 806 806 809 814 816 817
806 805 805 804 804 804 802 801 800 799 799 800 801 801 802 803 804 804 805 807 808 809 810 811 812 812 813 813 813 813 814 811 809 810 810 810 811 810 811 811 811 811 810 810 809 809 809 809 809 808 811 812 810 808 806 804 803 805 806 804 803 802 801 800 800 799 798 798 797 798 798 799 800 802 802 798 797 799 801 804 806 807 808 811 815 819 820 820
805 804 804 803 802 802 801 800 799 799 798 798 799 800 801 802 803 804 805 806 807 809 809 810 811 812 813 813 812 814 813 810 810 810 810 811 811 810 811 811 811 811 810 810 809 809 809 810 809 809 812 811 809 808 806 808 808 805 804 805 804 803 801 800 799 797 798 797 796 798 798 798 799 801 803 800 803 805 804 808 810 810 814 819 822 823 824 823
804 803 803 802 801 801 800 799 798 798 797 796 797 798 800 801 802 803 804 805 807 808 809 810 811 811 813 812 813 815 812 810 810 810 810 811 810 810 810 810 811 811 810 810 808 808 808 809 809 808 809 810 810 809 808 810 809 804 804 805 804 803 801 800 798 796 797 796 795 798 798 799 799 802 804 805 810 808 807 814 816 816 821 825 827 827 827 827
803 803 802 802 801 801 800 799 798 797 796 796 797 798 799 800 802 803 804 805 806 807 808 809 810 811 812 812 815 815 811 810 811 810 811 811 810 810 810 811 811 810 810 809 809 808 808 808 807 808 810 811 810 810 808 808 808 805 805 805 803 804 801 798 797 795 796 797 795 796 797 800 801 804 807 810 814 811 811 820 821 823 827 829 830 830 830 831
803 802 802 802 801 800 800 799 798 797 797 797 798 798 799 800 801 802 803 805 806 807 808 809 810 811 811 812 814 812 810 810 811 810 811 810 811 811 810 811 810 810 810 809 809 809 808 808 808 810 811 811 813 813 809 807 808 806 807 809 806 806 801 794 793 791 793 797 795 793 798 807 810 813 816 816 816 813 816 823 825 828 831 832 833 832 833 835
802 802 802 802 801 800 799 798 798 797 797 798 798 799 799 800 801 802 803 805 806 807 808 809 810 811 811 812 811 810 810 810 811 810 811 811 810 810 810 810 810 810 810 809 809 809 809 809 809 810 810 811 814 812 808 806 807 807 808 810 809 810 802 791 791 790 792 798 795 793 804 818 822 822 823 821 818 815 822 829 830 832 833 835 835 835 837 838
802 802 802 802 801 800 799 798 798 797 798 798 799 799 800 800 801 803 804 805 806 807 808 809 810 810 811 812 810 810 810 810 811 810 810 811 810 810 809 810 810 809 810 809 809 809 809 809 809 810 810 811 811 809 809 809 808 809 809 809 813 814 803 791 792 791 794 800 795 793 807 822 827 826 826 825 821 820 828 835 835 836 837 838 839 840 841 842
802 802 802 802 801 800 799 798 798 798 799 799 800 800 800 801 802 803 804 805 806 807 808 809 810 811 812 812 810 810 810 810 810 810 810 810 810 810 809 810 809 809 809 809 809 809 809 809 810 812 811 809 810 812 815 814 810 810 810 811 814 815 806 797 795 793 796 799 797 797 808 823 830 831 830 829 826 825 833 839 840 841 841 842 843 844 845 846
802 802 802 801 801 800 800 799 799 799 800 800 801 801 802 803 803 804 805 806 807 808 808 809 810 811 814 812 810 810 810 810 810 810 810 810 810 810 809 809 808 808 808 808 808 809 809 810 811 812 811 811 813 816 819 816 812 810 811 812 811 812 810 803 797 795 796 798 801 801 806 820 832 835 834 833 832 832 837 843 843 844 845 846 847 848 849 849
802 802 801 801 801 801 800 800 800 801 801 802 802 803 803 804 804 805 806 807 808 808 808 810 810 811 812 811 810 810 810 810 810 810 810 810 809 809 809 808 807 807 808 808 809 809 810 811 811 811 812 814 814 816 820 817 813 812 813 813 811 811 812 809 803 798 797 799 803 804 807 824 838 838 839 838 836 837 841 846 847 848 849 850 850 850 851 851
801 801 801 801 801 801 801 801 801 802 803 803 804 804 805 805 806 807 807 808 808 809 810 810 811 815 815 811 810 810 809 810 810 809 810 809 809 809 808 808 807 808 808 809 810 810 811 811 812 813 814 815 814 816 819 817 816 816 817 816 814 812 812 812 806 800 799 800 805 806 811 832 844 842 843 843 841 841 846 850 850 851 852 852 853 853 854 854
801 801 801 801 801 801 802 802 802 803 804 804 805 805 805 806 807 807 808 809 810 811 812 812 811 815 816 811 809 809 809 809 809 809 809 809 809 808 808 808 808 809 811 813 812 811 812 813 815 816 816 815 815 815 815 814 815 816 817 817 817 815 812 810 806 803 802 803 807 807 812 834 847 846 847 848 846 846 850 852 853 854 854 854 855 856 857 857
801 801 801 801 801 802 802 802 803 804 805 805 806 806 807 807 809 810 810 810 810 811 811 810 810 811 811 810 809 809 809 809 809 809 809 809 809 808 807 807 808 811 812 814 813 811 812 815 818 818 817 816 814 813 812 812 813 813 815 816 818 819 815 809 805 804 803 805 808 806 816 838 848 849 851 851 850 851 854 855 855 856 857 858 858 859 860 860
801 801 801 801 801 802 803 803 804 805 805 806 806 807 807 808 810 812 810 810 810 809 809 809 809 810 810 810 810 810 809 810 810 810 810 809 808 808 808 808 811 813 812 812 812 811 813 816 817 816 816 814 811 810 809 810 810 812 815 817 819 820 815 808 806 806 803 807 809 807 824 847 851 853 855 853 853 855 857 858 858 860 860 861 862 862 863 863
801 801 801 802 802 802 803 804 804 805 806 806 806 807 807 807 808 808 808 810 810 808 809 809 809 810 811 810 810 810 811 812 812 811 810 809 808 810 810 810 813 814 811 811 813 814 816 817 816 815 814 811 808 809 810 810 811 813 816 819 820 818 815 809 806 807 805 808 808 806 829 852 854 856 857 855 857 858 860 861 861 863 863 864 865 865 865 865
801 801 801 802 802 803 804 804 805 805 805 806 806 806 807 806 806 806 806 810 811 810 810 810 811 811 811 811 810 810 811 813 814 812 811 810 809 811 812 812 813 813 812 813 815 816 817 816 815 814 811 809 810 812 813 813 813 816 818 819 820 819 818 814 809 808 808 809 806 808 835 858 857 858 860 858 859 861 862 863 864 865 866 867 868 867 867 867
800 801 801 802 803 803 804 805 805 805 805 806 806 806 806 806 806 806 806 809 812 812 811 811 811 811 811 811 810 811 812 813 814 814 812 812 811 811 812 813 813 813 814 815 814 815 817 816 815 813 811 812 814 816 817 817 816 818 820 819 819 820 821 820 817 813 809 807 805 810 832 855 861 861 862 861 860 863 865 865 867 867 868 869 869 870 869 868
800 800 801 802 803 803 804 805 805 805 805 806 806 806 806 806 806 805 806 811 815 814 812 812 811 811 811 810 811 811 812 813 815 815 813 812 813 812 812 812 812 815 816 814 813 814 816 816 815 813 812 814 816 819 821 820 817 819 821 821 820 821 822 821 820 818 813 807 804 807 819 843 863 864 863 864 863 866 868 868 870 870 871 871 871 871 871 870
799 799 800 801 802 803 805 805 805 805 805 805 805 805 805 806 806 804 806 815 820 816 814 813 813 813 811 811 811 810 813 816 815 815 813 814 813 812 814 812 812 815 815 814 814 815 816 817 817 816 816 816 816 820 823 821 820 818 818 822 821 821 821 818 820 822 818 810 805 808 815 835 859 865 863 866 867 869 870 870 872 872 872 873 872 873 872 871
798 799 800 801 802 803 804 804 804 805 805 805 805 805 806 805 806 804 808 822 824 817 815 815 813 813 812 810 810 812 817 817 815 815 814 814 813 813 816 815 814 815 814 814 817 818 819 818 819 819 817 817 818 821 823 823 822 816 818 824 821 819 819 818 825 825 821 817 810 811 815 821 845 863 864 866 870 871 873 872 873 873 873 874 873 873 873 872
797 798 799 800 801 803 804 804 804 804 804 805 804 805 806 805 805 804 812 828 825 815 815 814 812 812 811 809 809 812 816 816 817 817 814 814 815 814 816 817 817 817 816 816 819 821 822 820 821 820 818 819 821 823 824 824 821 817 822 827 823 822 823 823 828 825 823 824 814 811 812 815 841 865 864 864 871 873 875 874 874 874 874 874 874 873 873 872
797 797 798 800 801 803 804 804 804 804 804 804 804 805 805 804 805 807 818 828 821 814 815 814 812 813 811 811 812 813 814 815 818 818 815 816 816 815 817 818 817 818 818 818 819 822 823 822 823 822 820 821 823 824 826 824 821 820 824 825 821 822 823 826 830 825 824 825 815 810 811 815 840 864 862 862 869 873 875 875 874 874 874 874 874 873 872 871
796 797 798 800 801 802 804 804 803 803 803 803 804 805 804 805 808 815 825 826 819 817 816 814 815 816 814 816 816 817 817 816 817 817 817 819 818 816 817 818 819 820 820 819 821 824 825 824 825 825 824 825 825 825 826 827 825 824 823 820 816 815 817 824 829 825 823 819 810 812 818 815 828 854 868 868 869 872 874 875 875 874 874 874 872 871 871 869
796 797 799 800 801 802 803 803 803 803 803 803 804 804 805 808 814 821 826 822 819 820 818 817 820 818 818 821 821 821 819 818 818 818 821 825 825 823 822 823 824 820 819 821 823 825 825 824 825 828 829 829 826 824 826 831 830 825 823 821 818 815 814 820 824 824 825 820 810 816 823 811 814 845 871 873 870 872 873 874 875 874 872 872 871 870 869 868
797 798 799 801 802 802 803 803 803 803 803 803 804 804 807 813 819 823 823 820 822 823 822 823 822 820 822 823 824 825 822 820 820 820 826 832 836 837 836 839 838 826 821 825 826 825 824 826 829 830 830 830 826 823 824 828 826 823 824 825 826 828 828 827 828 828 827 817 809 816 821 815 827 856 871 871 872 872 872 872 872 872 872 870 869 868 867 866
798 800 800 801 802 803 804 803 803 803 803 803 804 805 809 816 822 827 825 823 824 824 824 825 823 822 823 823 826 828 825 823 823 824 829 833 838 842 842 846 845 836 830 830 831 828 825 827 829 826 827 830 827 824 826 826 824 823 825 828 834 842 848 847 839 836 833 821 814 817 821 828 848 868 870 869 873 871 870 871 870 870 870 868 867 867 866 865
800 801 802 802 803 803 804 803 803 804 803 803 805 808 813 819 826 830 829 827 826 823 824 827 824 823 824 824 828 829 825 824 825 828 830 831 837 843 844 845 845 843 841 836 836 837 831 828 828 825 826 829 827 827 829 829 829 828 827 831 836 838 849 854 844 840 840 833 825 819 823 836 850 863 869 870 870 869 868 869 868 869 869 867 866 865 864 864
802 802 803 803 803 804 804 803 803 803 803 803 807 812 817 823 828 831 832 831 829 826 826 828 826 824 825 827 829 829 828 826 826 831 835 838 844 848 849 849 848 849 848 840 839 844 838 830 829 830 830 829 827 828 830 830 829 829 827 830 833 832 839 847 843 839 840 841 834 825 839 861 865 865 870 869 867 868 868 868 868 868 867 866 866 865 864 863
803 803 803 803 804 804 803 803 803 803 803 804 810 818 825 831 834 834 835 834 832 831 830 827 825 826 827 828 829 829 829 828 827 833 840 846 851 853 852 852 853 854 855 851 848 849 844 833 829 831 831 831 832 830 830 831 827 827 830 829 830 832 835 841 843 837 839 847 837 823 841 872 876 870 869 867 867 867 866 867 867 866 867 866 865 864 863 862
803 803 803 804 804 803 803 803 802 803 803 806 813 824 832 837 840 840 839 836 834 835 833 827 827 829 830 830 831 831 830 830 829 832 840 847 852 857 856 855 855 856 859 858 852 851 852 843 832 831 828 830 837 833 829 832 829 829 833 830 830 834 833 840 848 845 846 854 842 823 829 851 860 863 867 868 866 866 865 866 866 865 865 865 864 863 863 861
803 803 803 803 803 803 803 803 803 803 805 810 820 830 835 838 840 842 842 839 836 836 832 830 830 831 832 833 834 833 831 831 831 833 839 847 854 860 862 859 857 856 860 859 851 851 856 848 836 832 831 832 836 834 829 831 831 832 835 833 834 840 842 846 853 856 859 861 851 835 829 837 849 858 868 870 866 866 866 863 865 865 863 864 863 862 861 860
803 803 805 805 804 804 803 803 804 804 806 815 826 833 836 840 842 842 842 841 839 836 833 832 833 831 833 836 837 837 834 834 835 835 841 849 856 861 864 863 859 857 859 858 854 853 854 852 842 834 835 835 832 833 834 833 832 833 835 835 835 842 850 853 852 854 861 862 858 850 837 841 859 865 867 870 866 866 866 863 863 863 862 863 862 861 861 859
803 805 807 806 804 805 804 803 804 808 814 823 830 834 837 841 842 841 841 841 838 836 835 835 835 834 837 839 841 841 839 838 838 839 846 855 859 862 866 866 862 860 859 856 855 855 854 855 849 837 836 837 834 836 839 838 838 838 838 843 845 846 850 855 851 850 856 858 859 860 848 846 861 866 864 868 867 866 865 863 862 861 861 862 861 861 860 858
804 807 808 806 805 805 803 805 811 817 824 830 833 836 838 839 840 840 839 839 837 836 836 837 838 840 842 842 844 845 843 840 841 844 851 858 861 863 865 865 865 863 859 856 856 858 857 858 857 851 845 841 839 840 840 838 840 841 843 849 853 852 853 861 862 856 857 856 856 862 858 852 858 862 863 867 866 864 864 861 860 860 859 860 860 860 859 857
805 809 809 806 806 804 804 813 824 827 830 834 835 838 839 838 839 840 838 839 837 834 836 839 841 845 847 845 847 848 846 845 846 848 853 860 864 866 865 863 864 862 860 861 861 861 861 862 863 859 851 845 843 843 842 841 840 841 847 851 853 854 855 861 864 861 862 863 862 866 865 859 861 862 860 864 864 863 862 860 860 860 859 860 860 859 857 855
807 809 808 806 806 804 807 820 831 834 836 840 840 840 840 840 841 841 841 841 838 836 838 842 844 846 848 847 847 849 849 849 850 851 856 863 867 868 865 863 862 862 861 863 863 861 860 862 863 857 851 847 843 841 841 842 843 844 849 853 856 856 856 858 861 865 869 866 866 873 869 860 862 863 861 862 863 862 861 860 860 860 859 859 859 857 855 854
807 808 807 806 806 805 809 820 831 838 841 840 841 842 843 843 844 845 844 844 843 841 843 846 847 847 847 848 847 848 849 849 852 855 858 863 866 865 864 863 862 863 864 864 864 863 859 858 861 861 859 856 850 847 846 846 850 852 853 858 862 861 863 866 866 872 876 868 866 876 871 857 857 862 861 860 861 859 859 859 859 859 858 858 857 856 854 852
808 809 809 808 806 807 813 820 827 835 838 838 840 842 842 844 847 847 847 847 846 845 846 848 849 848 849 847 846 848 850 848 851 857 860 862 865 865 864 863 863 863 865 866 866 866 861 860 863 866 868 868 864 860 858 857 859 857 854 860 865 865 866 867 868 873 875 871 870 873 867 856 855 859 859 858 859 858 858 858 858 858 858 857 856 854 852 850
808 811 812 813 812 814 819 823 825 829 833 835 838 841 843 845 847 847 846 847 847 847 848 850 849 849 850 849 848 851 854 853 853 857 863 865 864 864 864 862 863 864 864 865 865 865 864 863 866 868 868 869 868 865 862 862 863 859 855 857 861 866 868 867 870 870 870 875 876 869 866 865 860 858 858 858 859 859 858 858 857 856 856 854 852 851 849 847
809 814 817 817 818 820 823 825 826 827 830 832 835 840 843 845 847 846 846 848 848 848 851 853 853 852 853 854 852 852 856 857 857 860 867 868 865 865 864 862 863 864 863 864 864 864 865 866 869 872 869 867 868 866 862 864 864 860 857 856 857 865 870 868 867 865 867 878 875 861 863 869 863 858 859 859 859 859 857 856 855 855 854 851 849 848 846 844
811 816 820 819 820 824 826 826 827 828 830 831 835 841 844 847 850 849 848 848 848 849 851 854 857 857 857 857 854 854 857 857 858 863 867 867 867 866 864 864 865 863 863 864 864 866 869 869 872 875 871 867 867 864 862 864 862 858 855 854 854 862 867 865 864 864 869 875 868 860 866 870 863 860 860 859 858 858 856 854 854 853 851 849 847 846 844 842
814 817 821 821 823 828 829 829 828 829 831 833 837 843 846 849 854 856 855 851 849 852 852 854 859 859 858 858 854 855 859 854 854 863 868 868 869 868 866 866 865 864 866 865 866 870 869 868 872 874 871 869 867 862 861 863 860 857 855 853 853 859 863 865 865 867 869 869 865 868 873 871 864 862 860 857 857 856 855 853 853 852 849 848 847 845 843 841
811 814 818 821 824 829 829 828 829 830 834 838 841 845 849 851 854 858 860 856 851 854 856 857 860 860 859 860 857 857 862 860 857 862 867 868 869 868 867 867 866 867 868 867 869 871 868 868 872 873 871 868 863 859 860 860 859 859 856 855 857 860 862 865 868 869 871 871 869 873 878 871 862 859 858 856 856 855 854 853 852 851 849 848 846 845 842 840
809 810 813 816 824 830 827 828 832 831 835 843 844 845 849 853 855 857 861 863 859 858 861 861 861 861 861 862 861 861 866 867 865 866 868 869 868 867 868 868 868 869 869 871 872 870 871 873 873 875 876 868 861 861 861 860 862 861 857 858 860 861 862 866 870 871 873 875 876 878 878 869 858 856 857 856 855 854 853 852 850 850 849 848 846 843 841 840
809 810 811 813 823 833 832 832 835 833 837 847 848 847 850 852 856 856 857 862 864 862 863 863 861 862 861 859 860 864 867 868 868 869 870 869 869 869 868 868 869 869 870 873 874 873 876 877 874 878 879 868 861 864 865 866 867 859 856 861 862 863 866 867 870 873 872 875 879 877 871 863 858 858 859 857 855 854 851 850 851 850 848 846 844 843 841 840
Wind_Speed
6 5 6 6 6 7 6 5 4 3 3 5 6 5 7 7 6 5 3 2 2 4 1 1 1 1 2 4 5 4 4 6 6 6 5 6 3 1 2 3 4 6 4 3 3 5 6 6 9 9 7 4 2 2 3 3 2 3 3 2 3 4 4 4 2 3 0 2 3 1 5 6 4 7 3 3 4 2 3 3 5 6 4 6 5 7 16 18
7 6 6 6 6 7 8 7 5 4 3 3 5 6 8 9 8 7 4 2 6 5 2 1 1 2 4 4 5 4 5 7 8 9 8 8 3 1 2 3 4 5 4 3 4 7 6 4 7 6 4 1 2 3 2 3 3 3 3 3 4 5 5 4 3 4 1 1 5 4 4 5 3 5 4 4 6 5 5 6 7 8 7 9 5 13 15 15
7 7 6 6 7 7 8 8 6 5 5 2 4 6 8 9 9 9 8 8 9 8 6 5 4 5 5 4 5 5 6 6 6 6 5 6 3 2 1 2 3 3 4 3 4 8 8 9 11 5 2 2 3 2 2 2 2 3 3 3 5 5 4 6 6 3 2 1 4 6 5 6 5 3 3 4 8 6 4 5 5 6 7 7 4 11 13 13
7 7 7 6 7 7 8 8 7 6 6 5 4 5 7 8 9 10 11 10 9 9 9 9 8 7 5 5 4 5 5 4 2 2 6 5 3 1 1 1 2 3 4 3 4 7 9 12 11 4 1 2 4 0 2 3 2 2 5 5 6 4 4 7 7 3 2 3 2 4 6 6 5 3 3 4 7 6 3 4 4 5 7 7 3 6 10 8
7 8 8 8 7 8 9 8 7 6 6 6 6 6 7 8 9 10 11 11 11 10 9 9 8 7 5 4 3 4 2 2 1 4 6 4 3 1 1 1 2 4 3 3 5 7 9 10 6 2 0 2 4 2 3 6 4 3 4 6 7 3 4 7 5 1 1 3 3 4 5 4 5 3 3 3 5 6 2 2 6 7 7 8 12 13 15 16
7 8 9 9 9 10 10 10 9 7 5 6 8 8 7 8 9 11 12 12 11 11 10 9 8 7 5 3 2 3 1 1 2 5 5 3 2 0 0 1 2 3 2 3 7 9 8 6 2 1 0 2 3 3 6 5 2 2 5 4 5 4 4 7 5 3 2 4 3 3 2 3 5 5 3 4 7 8 5 5 6 7 12 20 24 21 19 18
7 8 10 10 10 11 12 12 11 9 7 6 8 10 8 9 10 11 12 12 12 11 10 9 8 7 4 2 2 2 2 1 3 5 3 3 1 0 1 1 3 3 3 5 8 6 4 3 2 3 1 2 4 4 5 5 3 1 4 4 5 5 7 8 6 5 5 4 5 3 1 2 5 5 3 6 9 8 7 4 9 18 25 28 24 19 18 19
7 9 10 11 11 11 13 13 11 11 10 8 9 10 9 9 9 10 10 11 11 10 9 9 8 7 4 3 2 1 1 1 3 5 3 2 1 1 1 1 4 5 6 9 9 4 4 4 3 1 1 2 2 4 5 6 6 3 4 4 4 5 7 7 7 8 7 6 6 3 4 5 6 2 4 10 10 5 6 12 17 21 24 24 20 19 18 19
8 9 10 11 12 12 12 13 11 11 11 9 9 10 10 9 9 8 8 9 10 10 9 8 8 7 6 4 2 2 1 2 3 3 2 2 2 3 3 2 4 7 9 11 9 4 2 2 3 1 0 3 2 5 5 4 3 4 3 4 5 6 8 8 9 9 7 5 4 4 6 6 5 1 4 8 7 12 17 18 17 20 21 19 17 17 18 18
8 9 10 11 12 12 11 11 9 8 8 7 8 9 10 9 8 7 7 8 9 9 9 8 7 6 4 2 3 2 1 4 2 1 3 3 3 4 3 3 4 6 9 10 8 6 2 1 3 1 2 2 2 4 4 1 3 5 4 6 6 8 9 7 9 10 6 5 4 5 7 6 2 2 2 4 11 14 19 18 16 19 17 16 16 15 19 21
8 9 10 11 11 10 8 7 6 6 4 3 4 6 8 7 7 6 6 7 8 8 8 7 7 5 3 2 3 1 4 5 2 1 3 2 3 3 2 2 5 5 7 9 9 8 2 2 5 4 1 2 3 5 5 2 3 5 5 7 8 8 10 8 10 10 4 3 2 3 3 5 3 2 1 5 11 14 19 18 16 18 14 15 16 14 18 21
8 8 9 9 9 7 5 4 3 4 3 2 2 4 6 6 6 6 6 7 7 8 8 7 6 5 3 2 1 3 5 6 3 1 2 2 2 2 2 4 6 5 4 7 7 8 6 5 7 3 2 2 3 3 4 4 3 5 4 6 9 7 9 9 7 6 5 2 2 6 5 8 6 6 7 7 10 16 20 16 15 15 13 13 14 13 15 20
7 8 8 8 6 5 3 3 4 5 5 4 4 5 6 6 6 6 6 7 7 8 7 6 6 5 3 2 2 5 6 6 4 2 2 1 4 5 4 5 6 3 4 6 8 7 6 6 5 1 3 1 2 2 3 4 2 4 3 3 5 7 7 8 4 2 6 1 2 6 3 5 6 8 10 7 10 19 19 15 13 12 12 12 13 13 13 20
7 7 7 5 4 4 3 4 5 6 6 6 5 6 6 6 6 7 7 7 7 7 6 6 6 4 4 1 3 5 6 5 4 2 2 2 5 6 5 5 4 2 3 6 8 8 6 5 4 2 3 1 4 4 5 5 1 2 2 1 2 2 5 7 4 4 5 1 2 8 3 0 5 8 9 9 12 19 17 13 13 11 12 11 12 13 12 17
6 6 5 3 3 4 4 5 7 7 7 7 7 7 7 8 7 7 7 8 8 7 7 7 6 4 3 2 2 4 5 3 3 3 3 3 5 4 4 5 6 4 4 7 7 6 6 5 2 0 3 3 1 3 5 4 2 1 1 3 3 1 4 7 5 4 4 1 3 7 3 2 4 7 8 9 13 18 16 12 12 12 12 12 11 12 10 13
5 5 4 2 2 4 5 7 8 8 8 8 9 9 9 9 9 9 8 8 8 7 8 6 4 3 2 1 1 3 3 2 3 3 3 5 5 5 7 7 7 6 6 6 4 5 5 3 1 2 2 3 0 1 3 4 4 2 2 3 4 1 3 5 5 3 5 3 3 3 3 3 4 7 8 9 13 16 15 12 12 12 11 11 10 10 10 11
5 4 2 0 2 4 6 7 8 8 9 9 10 10 10 10 9 9 8 8 8 7 7 3 1 2 1 0 1 1 2 3 3 3 5 6 5 5 6 5 5 6 6 5 3 3 3 1 1 1 0 1 1 2 4 4 4 4 2 1 4 2 2 3 5 6 3 5 1 2 4 5 5 7 9 9 11 15 14 12 11 10 9 9 8 10 10 11
4 3 1 1 2 4 6 7 7 8 9 10 11 11 12 11 10 9 8 8 7 4 2 2 2 2 0 1 1 2 3 2 1 3 4 4 4 4 5 4 5 6 1 2 2 1 1 1 1 1 2 3 1 4 3 2 2 3 3 2 4 3 3 4 4 4 1 3 2 2 5 7 7 8 9 9 10 14 13 10 9 9 9 9 8 9 10 11
3 1 1 2 4 5 6 8 7 7 9 10 12 12 11 9 8 6 5 5 4 2 0 1 1 2 1 1 2 2 2 3 2 1 2 3 5 6 6 5 4 2 2 1 1 3 2 1 2 2 3 3 3 4 5 6 3 2 4 2 3 5 5 6 5 3 1 3 0 2 3 6 7 7 9 9 10 13 11 9 9 8 9 9 9 8 9 10
3 2 3 3 5 5 6 8 8 8 11 11 9 7 5 4 3 2 0 1 1 1 2 3 1 1 1 1 3 5 5 4 1 1 2 6 7 7 4 2 1 1 1 2 2 2 3 3 2 3 5 6 5 5 6 6 2 1 2 2 4 4 5 7 5 4 2 4 3 4 6 7 7 7 7 7 9 12 10 9 9 9 9 9 9 9 9 10
3 3 4 3 5 6 7 8 10 10 10 8 5 2 1 2 2 0 1 1 2 1 1 2 0 1 0 0 2 4 2 1 3 1 4 9 6 3 3 0 2 2 3 4 2 2 5 1 5 6 7 7 5 2 1 1 3 5 3 4 5 3 5 6 2 3 1 4 4 2 9 7 7 7 6 6 10 10 8 9 10 9 10 8 10 10 9 8
2 3 5 4 4 6 8 9 11 9 6 4 2 1 2 2 2 2 1 1 3 4 3 2 1 1 0 1 1 3 2 2 4 3 8 11 3 1 2 2 2 3 4 2 2 4 4 2 7 6 4 3 4 6 7 5 4 5 4 3 4 4 4 6 3 3 2 2 5 1 9 6 6 8 6 8 10 9 8 10 10 9 10 9 9 9 8 8
3 3 5 5 4 5 8 9 10 8 4 2 2 2 0 1 3 3 3 3 1 4 3 2 1 1 1 1 2 3 3 2 1 4 9 10 2 1 0 2 1 2 4 3 3 0 2 4 6 5 4 5 6 7 8 6 4 3 2 1 3 4 2 2 5 6 4 2 5 3 9 5 5 7 7 8 8 9 9 10 10 9 9 9 8 8 8 9
5 4 4 6 6 5 7 9 9 6 4 3 3 2 1 1 3 4 3 2 0 2 1 1 0 1 0 1 3 2 2 2 1 3 7 6 1 0 1 1 2 2 3 2 3 3 2 5 3 5 6 5 4 6 8 6 4 3 0 3 2 3 1 4 5 7 6 5 3 5 7 3 3 5 6 5 6 8 8 9 10 9 8 8 7 8 8 8
6 5 5 6 7 6 6 7 7 5 3 3 3 2 1 1 1 2 3 3 1 2 2 2 0 1 1 2 3 0 2 3 1 3 6 5 1 1 1 1 2 2 4 4 4 2 2 3 1 5 6 6 5 4 4 4 3 5 1 3 4 4 5 6 5 7 5 5 2 5 4 1 2 4 5 4 5 8 7 8 9 8 7 7 6 7 7 6
7 7 6 7 9 8 6 3 4 5 4 3 2 2 2 2 2 3 3 3 2 2 2 1 1 1 3 1 1 1 3 2 2 3 4 4 1 1 2 2 1 0 2 3 3 1 1 3 5 5 4 7 6 3 2 3 5 3 3 5 4 3 6 7 6 4 1 4 4 2 1 2 2 3 4 5 6 7 6 7 8 6 6 6 5 5 5 5
7 8 8 9 10 10 6 1 2 4 3 2 3 3 3 3 3 3 4 4 2 1 1 1 1 1 2 1 2 4 2 2 2 3 3 4 3 1 2 3 2 1 2 3 3 0 1 5 7 6 5 6 5 2 3 3 5 3 3 2 3 6 8 7 3 1 3 4 6 1 3 4 2 4 5 5 7 6 5 6 6 5 5 5 5 4 4 4
8 9 11 11 12 12 6 1 1 3 1 1 3 4 5 3 3 4 5 3 1 1 1 2 0 0 2 2 4 4 2 1 2 3 2 3 4 2 2 1 2 3 3 5 2 2 1 3 4 4 5 4 3 1 3 2 2 5 3 2 5 6 8 6 1 4 2 2 6 5 1 2 1 3 5 4 6 5 4 5 5 5 5 4 4 4 3 3
7 9 12 12 13 14 5 3 1 1 1 0 3 5 5 3 3 5 5 2 1 1 0 1 1 1 3 4 5 3 1 1 2 2 2 4 5 3 2 1 2 2 3 5 5 3 0 1 2 4 4 2 1 4 4 3 1 6 4 4 5 4 5 2 3 3 2 2 4 6 3 1 1 4 4 1 3 3 3 4 4 4 4 3 3 3 3 4
7 9 11 12 14 14 5 3 3 2 1 2 5 6 4 3 4 5 2 0 1 0 1 1 1 3 4 4 4 5 3 2 1 1 3 5 8 6 1 0 3 3 3 3 2 2 1 1 1 3 1 1 2 4 2 4 3 4 6 5 5 4 3 2 2 2 4 2 6 3 4 5 2 3 3 1 1 3 3 3 3 3 3 2 2 2 2 3
8 9 11 12 11 10 5 3 3 1 1 4 6 5 3 3 4 5 2 1 1 1 2 2 2 3 5 4 2 5 4 3 3 4 4 5 9 9 5 4 4 4 4 5 4 3 4 4 2 1 1 1 3 4 3 1 2 4 4 4 5 5 4 4 4 4 4 3 7 2 6 7 4 3 2 1 2 4 4 3 2 2 3 3 2 2 3 3
11 11 11 8 7 7 3 2 2 2 3 5 5 3 4 4 3 2 1 1 1 1 1 1 2 3 3 3 3 4 3 4 3 5 3 3 6 6 6 4 3 4 4 4 4 4 3 3 3 3 2 2 4 3 5 5 6 6 4 5 5 4 5 4 4 2 1 4 6 4 8 5 3 1 3 4 4 4 4 3 2 1 2 4 4 4 4 4
13 11 8 5 4 5 2 1 1 4 4 5 3 4 6 4 1 1 2 2 0 1 1 0 3 2 3 4 4 4 2 2 3 4 3 3 5 5 5 5 4 3 1 2 4 4 3 5 5 4 3 1 4 4 4 4 4 5 3 4 3 2 3 3 3 2 2 5 7 5 5 1 1 1 4 6 5 4 4 4 4 4 3 3 5 5 4 4
10 8 7 6 5 3 1 1 3 5 4 4 3 5 6 4 1 0 1 2 1 2 1 1 3 4 4 3 1 2 2 1 2 5 4 3 4 4 4 7 8 4 1 2 2 2 2 3 3 2 2 1 2 2 2 2 2 3 1 4 3 3 2 2 3 3 4 5 7 6 3 2 1 2 5 6 5 5 4 4 3 3 3 2 5 4 4 4
9 8 7 7 6 5 4 3 3 4 3 3 4 5 4 2 1 1 1 3 2 3 3 2 3 4 4 2 1 1 1 0 2 6 5 4 3 2 3 5 7 5 3 2 1 1 2 3 5 2 1 1 1 2 3 4 1 4 1 4 1 2 4 3 4 5 5 5 5 3 1 0 1 2 5 5 5 4 3 3 2 1 3 3 4 4 4 4
7 6 7 7 7 6 5 4 2 3 3 4 6 4 2 2 1 1 1 2 0 1 3 4 4 4 3 2 3 4 2 0 3 4 3 3 3 2 3 2 4 6 4 2 1 2 2 4 6 3 2 1 1 3 1 4 1 2 2 1 3 4 6 2 5 4 2 3 4 2 0 1 2 1 4 4 2 2 1 1 2 3 3 3 4 4 4 4
4 4 5 7 8 6 5 4 3 3 4 5 5 2 2 1 1 1 1 1 0 1 2 3 2 2 2 2 3 6 4 2 2 3 2 2 2 3 4 3 3 6 4 1 1 1 2 3 7 3 3 2 2 1 2 1 3 3 1 3 3 1 3 2 2 4 3 3 4 4 5 3 2 2 2 1 2 3 4 3 2 3 3 4 5 5 5 5
3 3 3 7 10 7 4 4 4 4 4 6 5 2 2 1 1 1 1 1 0 2 4 2 0 1 2 1 2 6 5 3 3 3 3 1 2 3 4 3 3 5 5 2 1 1 2 1 7 2 2 4 3 4 4 4 2 3 1 2 2 2 2 2 1 2 3 5 5 5 8 5 3 2 1 1 3 5 7 7 4 4 4 4 5 4 5 5
3 3 2 6 11 8 4 3 3 5 5 5 3 1 2 1 2 2 1 0 1 2 3 1 0 2 3 3 1 4 4 3 2 3 3 2 1 3 4 3 4 6 7 2 2 2 1 3 4 4 3 4 3 4 2 5 5 4 3 3 3 2 2 0 1 2 2 6 6 4 6 3 1 3 3 2 4 4 8 9 5 5 5 4 4 5 6 6
2 3 1 6 10 8 5 4 5 5 5 3 3 1 1 1 2 3 3 2 1 1 2 1 2 3 2 3 2 2 2 3 2 3 2 2 2 2 3 2 3 7 7 3 3 2 2 2 3 5 6 4 2 1 1 1 2 3 4 4 3 2 0 0 2 2 2 4 4 4 6 3 1 3 4 4 2 3 7 8 5 5 4 3 5 6 6 6
2 3 2 6 9 8 5 5 6 4 4 3 2 2 1 1 0 3 3 2 1 1 2 3 3 3 1 3 3 2 2 3 3 3 2 2 3 1 1 2 2 5 4 5 4 2 1 1 2 4 5 3 3 4 2 3 3 2 1 1 1 1 2 4 5 1 1 3 3 4 8 4 2 3 4 4 2 4 7 6 3 4 5 4 5 5 6 6
4 2 2 6 8 7 6 6 4 3 4 2 1 1 1 1 1 3 4 2 2 1 3 4 3 3 2 2 1 2 3 3 3 3 2 1 2 1 2 4 3 2 2 2 2 1 1 2 0 3 4 4 7 6 1 3 5 5 2 2 2 1 3 2 6 3 1 2 2 2 6 4 2 3 4 3 1 5 6 4 3 4 5 4 5 6 7 8
3 2 2 9 9 6 9 5 4 4 3 0 1 2 2 2 2 2 3 4 3 2 4 4 2 3 2 1 1 2 2 2 2 3 3 2 1 2 3 5 4 2 3 1 2 2 1 2 1 3 4 4 6 6 4 4 6 4 2 2 1 1 3 5 4 2 1 3 2 3 5 4 3 4 3 2 3 5 5 4 4 5 5 4 7 8 10 11
3 2 2 10 10 4 5 3 1 3 2 1 3 3 3 3 3 3 3 3 3 2 3 2 2 2 1 1 2 2 1 2 2 2 3 2 1 1 2 5 4 3 2 1 2 2 1 0 2 3 5 6 6 6 6 5 4 2 3 1 1 1 3 1 1 2 1 3 2 3 5 4 3 4 3 3 5 9 7 3 5 7 6 6 8 9 10 11
3 1 2 9 13 8 4 4 5 5 3 3 4 2 2 3 2 1 2 2 3 3 3 0 0 2 1 1 3 3 3 3 1 1 3 2 1 1 3 4 4 3 1 3 3 1 1 2 2 3 1 4 5 5 5 5 4 3 2 2 1 3 4 1 1 1 2 3 1 3 6 5 3 4 7 7 9 11 8 6 8 8 5 7 9 10 10 10
2 2 2 6 9 7 2 1 5 6 4 4 4 2 3 3 2 1 3 3 2 4 4 1 1 3 4 4 4 3 4 3 2 2 3 1 2 2 0 2 3 2 2 2 1 3 2 0 2 4 4 4 5 6 5 4 6 7 8 8 5 4 5 4 2 2 4 1 2 5 6 6 8 9 9 9 10 10 8 9 10 7 7 10 11 10 11 10
2 1 1 1 2 4 4 4 4 4 3 4 3 1 2 2 1 2 3 2 1 3 4 3 4 4 3 3 3 2 3 3 4 3 1 1 2 3 2 2 2 1 2 1 3 4 4 2 1 2 3 6 6 8 9 7 7 9 11 10 6 5 5 5 4 5 3 1 6 7 3 6 10 10 9 10 9 8 9 11 10 8 10 12 12 12 13 13
2 1 2 2 2 2 2 2 3 5 4 4 4 2 3 3 3 2 2 2 2 2 3 3 5 4 2 1 2 1 3 3 3 2 0 1 2 4 4 1 2 2 3 3 3 4 5 2 3 1 4 7 7 10 10 7 7 8 9 9 6 5 7 7 7 6 5 3 8 7 4 8 10 9 10 10 8 8 11 11 9 9 13 14 13 13 14 16
2 2 1 2 3 3 2 1 4 7 6 4 4 3 3 4 3 0 1 2 3 4 3 3 2 3 4 2 4 3 0 1 0 2 1 0 2 1 2 1 2 3 4 3 3 3 5 1 3 2 5 7 7 9 8 5 7 8 8 9 5 6 8 7 6 4 4 6 8 6 7 11 9 8 10 9 7 8 10 10 9 12 14 14 13 14 15 17
2 2 1 3 4 1 1 3 5 6 5 4 4 2 2 4 3 1 2 3 1 3 3 4 2 2 3 5 5 3 4 4 3 4 3 2 1 1 1 1 1 3 4 3 2 2 3 1 3 2 4 6 6 6 6 6 8 10 11 8 3 4 4 3 2 1 1 4 6 6 8 10 7 6 8 8 8 9 11 11 12 12 13 13 14 15 16 15
3 4 5 6 4 3 3 3 4 5 3 3 2 2 2 2 3 3 2 2 3 1 1 4 1 1 3 5 4 3 4 3 4 6 5 4 3 2 1 2 3 1 3 1 1 3 3 1 3 5 4 6 4 5 9 10 9 10 10 7 3 4 3 2 2 2 2 3 6 7 7 8 7 7 8 9 10 12 13 13 12 11 11 13 14 14 13 13
4 4 4 6 3 2 2 3 4 4 2 1 1 2 2 2 4 5 3 1 2 3 2 4 2 1 2 3 1 4 5 4 5 5 3 3 3 2 2 3 4 3 2 2 0 1 3 2 1 3 2 6 6 7 9 8 7 7 6 4 4 4 3 2 2 3 4 4 3 5 6 8 9 9 9 10 11 13 14 13 11 11 12 13 12 11 11 14
Wind_Direction
306 302 294 282 281 287 292 304 329 335 329 332 307 267 249 232 225 238 207 126 200 227 273 319 119 73 320 275 257 254 250 260 275 277 263 250 246 99 10 352 328 311 302 299 305 302 292 260 250 248 247 260 230 229 254 237 182 80 102 177 232 230 235 232 266 334 290 275 313 47 72 69 352 330 330 312 328 317 333 311 289 303 301 314 295 156 145 154
305 305 293 286 282 280 277 283 312 317 305 318 291 262 247 236 230 239 237 213 216 223 268 205 160 280 280 266 257 259 267 284 290 282 259 234 218 79 4 330 316 311 304 302 322 322 313 290 282 261 217 227 240 224 238 207 168 150 165 198 228 223 240 261 331 350 37 300 330 354 48 52 338 310 346 328 303 326 350 322 320 318 316 346 48 122 134 146
302 304 298 286 276 278 279 279 292 307 303 286 261 251 243 236 228 230 232 227 228 235 241 233 256 274 268 265 259 261 280 303 304 274 224 190 148 92 318 309 320 325 314 307 329 327 311 300 305 299 187 240 258 231 246 224 191 193 186 224 241 231 267 301 324 345 96 79 356 344 357 1 320 311 353 311 298 308 310 282 298 315 313 339 66 132 142 148
302 304 301 289 281 285 287 283 286 296 297 284 263 241 232 230 225 226 227 227 230 235 239 242 255 264 263 269 265 259 277 328 322 190 156 146 112 102 271 321 357 334 311 311 315 311 298 292 298 305 158 269 281 253 192 224 220 192 179 206 231 247 299 297 310 336 74 61 47 331 347 342 304 312 325 315 317 301 261 248 268 296 303 327 22 130 129 115
309 310 308 300 300 305 304 295 283 276 280 282 274 247 225 221 223 223 225 226 226 229 233 237 246 256 261 271 273 249 262 10 291 155 132 121 102 144 295 38 22 345 322 317 306 301 291 280 286 327 19 265 304 344 237 227 192 202 212 210 228 260 294 286 302 267 190 29 28 339 333 300 295 333 320 311 299 274 239 257 281 297 305 1 40 54 54 42
311 310 307 304 311 314 311 306 295 282 277 283 279 260 231 217 218 219 222 222 221 224 226 229 238 247 257 269 250 224 139 50 202 147 126 108 94 217 67 74 25 359 334 323 309 305 291 273 270 282 244 243 262 248 254 260 154 223 266 248 253 264 269 282 293 259 299 3 331 307 264 251 311 315 271 259 252 249 254 266 298 2 34 46 48 46 43 36
309 308 304 305 316 317 314 312 306 299 290 278 267 260 242 221 215 217 220 218 219 220 218 222 229 237 249 238 200 182 90 241 187 146 126 99 113 178 116 104 28 10 337 324 307 304 310 320 287 223 221 256 250 247 267 306 27 298 275 281 286 285 275 284 293 293 337 333 276 250 250 282 289 293 305 278 263 258 277 331 42 51 51 51 49 44 40 36
306 305 305 310 319 318 316 312 307 301 292 273 255 251 243 226 217 217 218 218 219 216 215 217 221 227 223 184 152 76 16 246 166 144 130 103 144 78 97 105 24 354 334 312 294 311 353 345 314 259 294 267 278 306 304 338 353 314 264 278 310 301 284 296 304 307 321 301 280 275 276 257 235 263 333 295 299 341 32 45 56 58 53 50 48 43 38 34
306 304 308 318 321 317 313 307 301 297 292 281 262 245 238 229 217 215 214 216 214 211 212 211 215 216 206 191 100 28 277 170 139 146 125 108 127 87 70 56 2 327 319 304 293 312 344 347 320 23 16 274 318 322 325 5 309 268 273 299 319 300 292 302 297 294 296 283 281 283 276 263 245 37 322 309 9 54 63 56 54 58 55 51 48 43 39 35
306 305 313 321 319 315 308 301 300 305 306 292 265 238 228 224 213 208 205 207 206 206 206 204 211 204 196 195 71 47 193 142 138 154 99 88 102 82 60 34 333 306 311 312 313 301 257 65 326 8 80 292 316 311 319 355 242 278 315 317 307 294 291 285 278 276 271 269 252 252 273 289 315 101 272 359 51 65 67 58 53 59 57 52 49 45 41 38
305 306 316 320 316 313 306 303 313 329 335 301 248 220 213 211 206 199 195 199 198 197 200 199 200 185 167 118 91 144 183 150 163 162 98 74 84 60 34 345 303 297 318 324 328 329 352 54 2 20 62 291 313 314 305 270 280 310 333 323 302 297 294 268 262 263 241 273 212 176 294 334 29 71 321 58 64 65 68 60 53 58 56 53 50 46 42 39
304 307 319 319 312 312 311 319 349 13 31 57 159 177 184 185 186 187 185 188 187 188 194 191 190 183 139 76 153 192 170 157 172 132 71 38 14 327 328 335 310 279 304 314 320 353 21 21 22 37 237 272 316 318 295 279 309 313 333 315 299 321 307 273 260 236 161 166 157 112 17 1 25 18 22 62 77 67 65 59 54 57 53 52 48 46 44 37
301 312 321 316 311 321 338 14 42 52 60 75 112 138 150 161 167 171 171 171 173 178 183 181 181 166 89 32 210 168 156 170 178 127 86 339 316 306 289 318 325 278 277 296 296 325 345 347 16 332 261 326 291 275 294 300 302 294 306 259 294 349 315 286 298 151 123 159 180 101 44 349 17 27 29 35 68 69 63 54 53 54 51 51 45 45 43 35
301 315 318 315 330 354 18 47 58 58 64 76 97 118 131 141 146 150 150 150 154 162 167 167 163 124 70 323 216 164 173 182 175 177 187 260 316 320 282 284 314 279 259 283 289 308 312 310 343 318 288 246 245 295 327 324 271 261 308 270 311 0 286 302 355 96 97 318 71 86 102 340 21 29 36 33 61 72 67 56 53 54 52 51 46 45 42 37
304 312 308 318 357 22 44 61 65 63 69 78 92 103 110 117 123 126 126 132 139 150 153 150 153 114 52 292 235 167 190 187 175 213 239 293 318 318 283 280 282 257 263 281 279 299 304 300 334 338 284 276 254 320 322 321 301 196 49 317 330 153 266 314 355 83 110 273 39 77 123 163 49 31 38 46 64 73 72 62 55 55 53 51 48 45 44 38
305 306 297 317 10 45 62 70 71 74 79 84 92 95 98 101 103 106 113 125 130 141 139 128 162 154 62 299 193 145 198 192 170 220 272 304 306 291 290 293 280 258 267 290 280 276 283 289 312 168 236 307 151 238 332 357 335 352 115 259 281 241 294 322 331 0 117 126 12 67 148 154 75 43 41 51 67 74 73 65 58 56 53 53 50 45 44 37
298 293 289 353 62 72 77 78 78 86 91 94 97 95 96 95 97 104 112 124 127 136 131 93 255 182 87 249 152 131 175 136 154 232 289 313 314 295 294 300 300 279 253 260 278 271 263 223 234 190 89 319 186 110 29 2 324 335 23 268 269 262 308 315 310 320 94 113 56 78 103 103 76 55 47 48 67 75 72 66 61 59 55 53 53 48 44 37
283 276 259 144 107 91 89 88 86 92 98 103 103 101 101 99 98 102 109 121 122 123 109 8 11 85 303 253 134 122 128 119 208 258 281 312 329 315 304 298 312 325 298 241 263 192 210 233 112 21 3 345 337 96 93 255 287 337 318 308 298 296 301 277 278 288 217 112 111 100 97 98 76 59 55 47 62 74 73 70 66 61 58 54 51 49 46 41
263 223 186 167 120 105 100 97 93 96 106 110 111 113 109 102 95 95 108 116 107 90 206 265 113 118 219 262 71 62 341 302 311 307 284 317 328 316 301 276 283 334 56 349 283 181 167 19 39 0 317 306 262 170 179 221 224 294 266 232 270 289 294 271 272 281 145 87 112 187 132 106 83 66 65 54 60 73 74 71 67 60 56 52 48 47 43 43
243 185 184 170 126 119 113 109 108 112 116 115 114 114 106 94 79 52 44 137 166 157 173 213 171 116 225 344 0 349 321 304 27 99 344 334 318 319 316 252 288 48 180 178 212 212 104 54 306 244 246 258 247 204 192 211 183 24 303 318 293 282 289 278 284 305 75 86 250 205 111 96 93 77 70 68 67 69 69 67 64 58 55 50 47 44 40 40
224 182 191 182 136 129 128 125 127 127 126 126 126 109 121 137 107 248 257 261 282 18 95 231 141 80 164 15 349 355 350 20 22 54 6 345 317 331 352 55 62 341 246 181 177 340 63 72 264 237 230 247 266 288 336 311 27 25 359 345 328 291 275 280 274 282 32 75 264 199 94 85 90 83 70 74 72 64 61 65 63 58 56 51 46 43 39 37
204 189 191 190 154 137 142 143 141 142 139 149 189 244 158 136 119 180 156 99 314 358 7 312 33 87 58 79 36 22 85 71 359 339 357 352 343 151 341 20 78 266 278 128 111 3 33 238 255 255 256 293 342 4 22 15 25 10 349 1 322 286 286 307 325 299 12 55 269 172 97 90 84 87 78 74 78 74 66 66 64 59 56 50 45 40 35 31
192 190 185 192 176 147 155 158 159 170 186 190 254 296 178 95 121 136 100 103 298 347 8 350 24 97 29 17 0 22 68 81 332 304 346 355 357 145 15 352 324 290 348 56 149 127 356 259 263 296 347 33 6 5 33 34 33 7 348 41 287 296 10 314 308 308 309 275 250 126 100 104 90 88 84 76 84 84 73 69 66 60 59 53 47 41 33 30
194 189 187 191 182 164 168 173 181 202 233 250 267 283 326 15 134 130 77 95 287 326 320 283 262 104 110 291 334 11 83 66 99 293 342 5 355 15 153 238 11 16 340 19 130 145 237 249 272 349 12 53 31 16 45 53 14 330 172 130 233 289 287 234 278 318 319 298 255 111 91 96 93 93 94 80 80 82 73 71 68 59 58 54 48 43 33 29
200 197 194 185 183 181 174 184 211 229 236 236 236 248 320 28 111 92 63 75 7 313 315 317 287 21 321 288 314 298 112 44 45 299 342 19 17 344 23 232 78 38 306 354 49 70 268 265 14 24 8 30 55 49 48 78 26 325 265 171 201 226 265 271 319 349 349 326 321 92 60 343 82 97 108 93 76 77 69 68 68 60 56 52 47 44 31 24
207 204 195 186 186 180 168 185 240 228 213 212 197 171 136 104 60 51 73 67 351 301 339 341 197 323 324 279 225 112 62 350 267 294 350 17 354 125 51 343 54 67 298 355 22 69 324 352 40 47 28 33 54 64 5 90 83 334 247 199 221 261 291 300 341 7 346 287 285 73 69 230 139 115 122 109 88 76 67 69 69 64 58 54 49 44 30 19
206 203 194 191 187 177 171 185 218 194 195 222 206 169 148 120 58 56 72 50 349 300 82 230 233 351 295 247 142 111 71 292 291 333 358 16 348 96 74 348 23 311 293 50 40 44 352 9 22 28 50 52 47 29 308 98 98 283 235 158 311 318 300 296 334 240 232 283 298 340 158 192 163 140 146 122 97 77 65 67 66 65 61 57 54 44 31 16
201 198 191 191 185 179 177 58 180 189 206 222 192 166 150 120 59 63 82 69 331 83 93 262 264 89 276 339 54 107 170 240 72 334 334 37 355 33 69 348 153 258 284 101 114 257 40 21 9 31 53 52 44 251 250 94 103 255 258 7 302 284 273 274 234 228 253 356 314 318 97 182 194 147 165 140 98 81 72 69 65 65 60 57 50 36 20 358
191 188 186 184 181 181 174 19 295 227 345 125 145 144 141 109 56 61 83 105 316 53 127 305 27 309 323 12 27 49 56 63 111 282 338 32 358 21 110 233 160 273 305 117 154 231 87 221 192 99 66 28 287 244 217 123 220 274 319 334 294 275 266 244 174 205 35 58 268 298 5 45 227 183 191 172 89 96 98 82 74 69 63 65 51 26 3 342
168 175 180 176 177 184 192 318 278 257 28 92 132 142 128 84 64 65 66 187 72 350 282 52 21 326 15 43 359 359 33 19 45 37 21 23 5 13 84 317 61 60 354 59 110 246 312 309 156 95 82 239 275 273 222 159 236 316 4 351 328 330 349 69 122 108 62 342 255 262 18 12 313 202 198 284 78 133 119 83 53 39 32 45 45 5 335 328
143 153 161 164 173 186 203 294 276 232 102 117 138 139 98 51 61 90 123 209 75 346 351 15 337 7 42 66 355 343 12 343 350 53 33 13 14 15 27 14 21 44 17 12 8 329 352 9 357 327 297 17 16 332 343 26 0 27 36 18 357 341 3 31 7 41 75 278 259 270 16 2 309 231 177 132 88 101 104 91 49 17 341 314 289 276 271 274
120 126 134 148 169 181 198 304 270 180 142 133 135 107 76 50 36 108 223 324 28 316 5 306 312 19 38 52 22 335 352 348 6 76 78 41 42 34 40 35 3 21 5 346 351 339 345 338 308 311 323 40 63 13 347 1 21 31 38 41 32 357 0 2 335 0 155 253 263 324 10 355 270 239 141 128 94 87 107 131 151 167 296 298 275 261 255 250
111 107 104 112 153 177 207 319 107 135 138 140 124 58 71 81 62 225 299 345 193 270 100 141 320 9 57 47 12 329 4 8 11 61 79 86 73 40 31 29 27 46 297 314 4 0 339 316 326 358 339 352 87 57 351 333 353 359 30 69 81 61 9 309 294 322 285 278 285 317 356 304 253 70 141 130 116 126 137 163 177 181 216 289 288 269 266 267
106 100 95 100 116 135 126 55 108 121 128 131 91 50 64 84 165 149 333 287 258 337 50 56 343 10 56 67 331 328 42 0 19 55 38 51 59 17 5 8 12 35 74 16 19 46 32 316 319 28 344 345 70 101 165 180 299 295 197 122 124 135 132 226 256 291 283 287 293 306 313 247 186 137 152 134 142 157 158 183 184 191 214 301 313 291 295 292
105 103 99 89 82 74 55 59 106 122 116 94 68 60 81 132 227 99 282 269 298 350 337 351 44 48 30 22 316 358 77 318 47 61 36 45 67 15 0 0 2 18 53 49 334 47 57 267 255 272 288 76 47 245 147 106 6 277 174 85 63 186 151 173 232 242 262 298 302 305 291 217 71 158 165 147 157 158 163 184 167 251 251 308 313 288 293 289
106 95 83 62 45 40 37 38 70 95 90 77 66 63 124 181 217 155 217 264 295 334 329 351 49 68 0 340 349 350 8 45 48 58 45 62 82 23 1 352 12 28 49 83 293 5 38 278 272 311 341 85 193 251 165 107 142 314 38 55 251 191 137 143 273 273 306 308 287 270 244 81 66 236 198 169 148 92 89 203 193 236 259 297 294 279 278 279
103 91 75 46 29 22 12 10 38 67 73 78 83 107 162 169 205 210 274 316 44 93 61 25 27 59 6 353 341 339 355 6 15 53 76 71 49 23 0 323 19 38 28 95 218 203 116 292 289 331 15 301 259 293 329 126 131 82 355 248 258 22 84 108 290 326 348 291 273 287 281 249 173 200 203 184 353 2 351 335 253 256 291 294 282 278 271 269
86 85 68 33 21 11 355 358 31 66 69 72 82 97 100 89 249 237 313 336 353 46 68 92 160 81 64 52 331 332 3 19 357 34 86 77 32 58 41 324 329 14 349 15 74 233 118 352 295 322 45 306 333 46 352 318 48 81 282 253 81 33 325 9 15 307 312 291 281 280 276 257 174 158 156 350 348 349 339 334 306 286 290 278 286 300 297 296
68 66 34 10 13 10 0 358 33 64 62 70 91 92 97 112 291 266 216 74 63 69 66 62 39 54 58 87 60 323 7 34 358 42 80 65 27 71 59 331 306 334 332 21 99 289 72 93 283 305 0 328 358 49 354 309 341 25 18 355 42 145 193 149 232 218 250 281 283 281 281 277 156 151 126 43 348 334 327 325 309 282 269 276 327 342 332 329
64 76 338 352 11 6 356 21 44 58 64 88 133 121 81 137 289 277 219 165 93 104 92 27 30 51 40 55 56 329 5 27 24 61 65 45 72 64 32 2 312 318 329 21 77 336 20 96 246 299 342 3 9 340 214 195 341 7 14 359 358 353 328 290 259 189 190 262 277 296 288 264 165 159 128 79 6 306 315 314 294 278 276 314 351 349 332 321
55 80 312 353 10 349 353 43 46 58 78 75 92 77 59 145 294 314 277 189 132 144 120 95 72 78 70 41 26 342 5 17 28 69 66 38 70 69 348 29 304 300 345 24 29 11 28 86 222 297 336 348 276 265 210 130 126 135 59 38 157 327 348 314 294 258 153 239 223 269 285 268 168 165 144 90 29 314 308 293 265 286 302 330 342 329 316 308
68 98 306 8 13 5 46 60 11 40 87 69 59 84 55 119 93 338 320 353 41 53 76 73 67 69 72 63 24 15 43 31 19 57 88 74 83 179 290 341 321 275 90 39 301 260 133 103 149 271 281 265 265 274 279 83 97 115 93 81 129 121 115 221 270 265 289 288 200 238 277 267 220 179 140 100 307 297 294 251 230 286 289 300 314 314 319 321
94 166 354 21 11 25 70 62 348 34 68 344 19 30 16 54 57 6 1 17 22 35 44 42 49 63 68 94 72 52 56 52 39 67 99 104 114 225 298 344 356 36 71 62 286 302 93 87 36 290 290 298 295 308 340 30 62 62 354 46 119 238 142 174 227 194 184 283 291 285 275 268 251 216 168 171 260 306 306 240 242 297 301 311 322 327 332 330
119 178 37 29 17 30 88 106 114 84 76 79 69 24 10 58 56 27 23 8 359 48 62 33 27 58 85 127 96 84 90 90 65 57 87 112 192 254 3 22 43 70 67 156 225 324 332 133 38 359 336 338 338 342 342 348 20 2 282 321 144 168 104 96 305 84 104 259 226 233 264 265 215 215 245 307 331 341 336 308 317 327 327 329 329 327 327 323
68 43 345 19 29 51 108 157 139 131 151 115 90 62 46 45 21 66 78 19 4 67 89 12 1 80 41 47 72 41 41 87 107 15 49 78 251 318 36 45 62 91 134 218 212 108 138 192 105 84 320 311 313 311 307 307 320 309 260 279 256 165 142 134 11 71 248 259 140 191 256 280 269 274 307 329 341 337 327 323 329 327 320 320 321 321 321 317
74 48 329 356 19 43 63 99 102 116 151 129 88 68 84 66 309 324 79 55 21 56 71 20 18 58 30 34 59 25 16 49 79 71 54 357 277 278 271 91 86 145 197 258 280 102 99 319 103 134 181 219 246 257 267 289 301 297 293 292 271 200 158 131 109 241 227 242 302 240 245 286 298 301 311 321 328 322 313 321 325 320 318 318 318 317 314 310
94 112 126 63 11 36 36 26 65 97 143 133 107 80 103 103 325 359 43 66 56 63 71 34 29 56 45 40 64 9 347 32 52 68 78 265 267 294 298 103 77 239 176 3 356 88 85 342 322 128 207 232 244 264 279 291 284 278 286 287 259 195 156 149 212 239 188 116 284 263 260 294 291 296 307 310 315 312 311 319 321 318 318 317 315 314 312 311
83 145 161 135 111 85 68 48 90 87 70 85 99 99 95 79 50 27 0 358 17 41 76 41 18 40 53 69 118 51 348 31 43 25 1 296 311 335 343 20 356 357 81 33 353 92 107 252 242 203 267 259 261 273 275 277 277 271 276 285 270 209 180 188 226 224 160 194 265 279 309 293 286 298 305 304 308 308 311 315 315 315 316 313 314 317 317 315
88 99 60 77 104 154 166 121 99 85 65 68 76 66 96 94 79 98 308 9 8 356 62 98 337 358 26 40 111 122 338 98 112 266 209 231 308 0 28 335 315 1 62 53 339 82 112 239 265 266 277 270 264 269 274 290 296 289 285 285 265 202 192 200 224 224 193 228 261 296 308 289 284 296 297 296 303 305 308 311 311 313 314 314 318 319 316 313
129 140 147 77 72 89 40 51 85 86 57 55 72 65 96 104 120 147 19 58 93 330 29 113 207 290 58 55 78 135 201 176 177 215 177 128 322 173 146 206 249 340 26 58 324 16 90 284 309 0 317 290 266 270 296 308 296 293 295 286 227 191 233 218 189 233 256 258 280 316 311 292 285 283 285 293 308 310 309 308 309 312 313 316 319 316 314 317
116 138 140 111 68 3 16 39 81 93 48 21 88 132 85 102 156 144 39 44 140 141 89 139 167 351 71 64 71 178 219 184 181 206 182 160 190 194 201 180 159 338 353 38 323 11 75 297 334 34 353 294 279 304 310 310 305 300 297 285 213 196 251 229 183 220 219 240 291 315 304 287 292 301 301 306 312 310 307 309 313 315 316 318 316 316 321 330
108 109 119 108 82 8 26 34 43 78 81 308 150 129 99 144 163 128 84 15 85 104 155 164 137 67 75 46 12 216 215 199 203 222 202 179 211 230 218 179 143 144 168 155 254 40 104 110 352 35 337 287 299 317 314 327 335 306 281 255 216 209 248 267 226 220 217 209 253 281 272 280 302 314 312 312 313 311 311 315 318 316 315 315 314 321 332 336